Regional Weather Roundup
Issued by NWS

Home | Current Version | Previous Version | Text Only | Print | Product List | Glossary Off
Versions: 1 2 3 4 5 6 7 8 9 10 11 12 13 14 15 16 17 18 19 20 21 22 23 24 25 26 27 28 29 30 31 32 33 34 35 36 37 38 39 40 41 42 43 44 45 46 47 48 49 50

000
ASUS43 KDMX 281707
RWRIA

WEATHER ROUNDUP FOR IOWA
NATIONAL WEATHER SERVICE DES MOINES IA
1200 PM CDT SAT MAR 28 2015

NOTE: "FAIR" INDICATES FEW OR NO CLOUDS BELOW 12,000 FEET WITH NO
SIGNIFICANT WEATHER AND/OR OBSTRUCTIONS TO VISIBILITY.

* - THESE STATIONS ARE NOT NWS STATIONS...THUS NOT UNDER NWS
QUALITY CONTROL.  THEY ALSO DO NOT REPORT WEATHER SUCH
AS PRECIPITATION OR FOG.

IAZ001>003-012>014-020>022-031>034-043>046-281800-
   NORTHWEST IOWA

CITY           SKY/WX    TMP DP  RH WIND       PRES   REMARKS
CARROLL *      SUNNY     43  23  45 S16       30.18F
CHEROKEE *     MOSUNNY   41  28  60 S15       30.16F
DENISON *      MOSUNNY   43  27  52 SE12G17   30.15F
LE MARS *      SUNNY     43  25  49 SE13G22   30.14F
ORANGE CITY *  SUNNY     43  21  42 SE9G17    30.14S
SHELDON *      MOSUNNY   41  30  65 SE17      30.13F
SIOUX CITY     SUNNY     46  25  43 S14       30.14F
SPENCER        CLOUDY    39  28  64 S16       30.18S WCI  30
STORM LAKE *   MOSUNNY   39  28  65 SE13G22   30.17F WCI  32
$$

IAZ055>058-069>071-079>083-090>094-281800-
   SOUTHWEST IOWA

CITY           SKY/WX    TMP DP  RH WIND       PRES   REMARKS
ATLANTIC *     CLOUDY    43  27  52 S13G21    30.18F
AUDUBON *      SUNNY     45  25  45 SE10G21   30.19S
CLARINDA *     SUNNY     45  30  57 S14       30.20F
COUNCIL BLFS * SUNNY     45  28  53 SE12G21   30.16F
CRESTON *      SUNNY     41  27  56 SE16      30.20F
HARLAN  *      CLOUDY    41  28  60 SE15      30.20F
LAMONI         CLOUDY    39  24  55 SE12      30.22S WCI  32
RED OAK *      SUNNY     45  28  53 SE14G20   30.18F
SHENANDOAH *   SUNNY     45  30  57 SE15G24   30.19S
$$

IAZ047>049-059>061-072>074-084-281800-
   CENTRAL IOWA

CITY           SKY/WX    TMP DP  RH WIND       PRES   REMARKS
AMES           PTSUNNY   42  15  33 SE12      30.23F
ANKENY *       SUNNY     43  14  31 SE10G20   30.24F
CHARITON *     SUNNY     41  16  36 S13G20    30.24S
DES MOINES     MOSUNNY   44  12  27 S16G24    30.24S
GRINNELL*      SUNNY     39  14  35 SE12      30.26F WCI  32
KNOXVILLE *    SUNNY     43  12  28 SE12G18   30.24S
MARSHALLTOWN   SUNNY     39  14  36 SE10      30.25F WCI  32
PELLA *        SUNNY     41  19  42 SE12G17   30.27F
PERRY *          N/A     43  19  39 SE15G22   30.21F
$$

IAZ004>006-015-016-023>025-035-036-281800-
   NORTH CENTRAL IOWA

CITY           SKY/WX    TMP DP  RH WIND       PRES   REMARKS
ALGONA *       CLOUDY    37  19  48 S14G22    30.21F WCI  29
CLARION *      CLOUDY    39  21  48 S14G20    30.22F WCI  31
ESTHERVILLE    PTSUNNY   39  24  55 SE18      30.18F WCI  30
FORT DODGE *   MOSUNNY   43  18  36 S13       30.21F
MASON CITY     SUNNY     40  17  39 SE13      30.24F WCI  32
FOREST CITY *  SUNNY     37  18  44 S12       30.22F WCI  30
IOWA FALLS *   PTSUNNY   39  16  38 SE10G20   30.24F WCI  32
$$

IAZ007>011-017>019-026>030-037>042-050>054-066-281800-
   NORTHEAST IOWA

CITY           SKY/WX    TMP DP  RH WIND       PRES   REMARKS
CEDAR RAPIDS   SUNNY     37  14  38 S9        30.28F WCI  30
CHARLES CITY * SUNNY     37  16  41 SE9       30.26S WCI  31
CLINTON *      SUNNY     34  10  37 SE8       30.37S WCI  27
DECORAH *      SUNNY     32  16  51 SE9       30.27F WCI  24
DUBUQUE        SUNNY     33  11  39 S10       30.30F WCI  25
MONTICELLO *   SUNNY     36  14  41 SE9G15    30.30F WCI  29
OELWEIN *      SUNNY     36  16  44 S9        30.28S WCI  29
WATERLOO       SUNNY     38  15  39 S9        30.27F WCI  31
$$

IAZ064-065-067-068-078-281800-
   EAST CENTRAL IOWA

CITY           SKY/WX    TMP DP  RH WIND       PRES   REMARKS
DAVENPORT      SUNNY     35  12  38 VRB7      30.33F WCI  29
IOWA CITY      SUNNY     38  15  39 SE12G17   30.32F WCI  30
MT. PLEASANT * SUNNY     37  14  38 SE10      30.32S WCI  30
MUSCATINE *    SUNNY     37  12  35 SE8G15    30.34S WCI  31
QUAD CITIES    SUNNY     36  10  34 VRB6      30.33F WCI  31
$$

IAZ062-063-075>077-085>089-095>099-281800-
   SOUTHEAST IOWA

CITY           SKY/WX    TMP DP  RH WIND       PRES   REMARKS
BURLINGTON     SUNNY     37  14  38 SE9       30.32S WCI  30
FAIRFIELD *    SUNNY     39  14  35 SE13      30.29S WCI  32
FORT MADISON * SUNNY     37  16  41 S7        30.32S WCI  32
KEOKUK *       SUNNY     39  16  38 E9        30.31S WCI  33
OSKALOOSA *      N/A     41  14  33 S9G16     30.28S
CENTERVILLE *  SUNNY     41  14  33 SE9G17    30.26F
OTTUMWA        SUNNY     41  13  31 S7        30.27F
WASHINGTON *   SUNNY     39  16  38 SE7G17    30.30F WCI  34
$$

ABBREVIATIONS USED IN REMARKS
   TC - TEMPERATURES IN CELSIUS
  WCI - WIND CHILL INDEX
   HX - HEAT INDEX
  VSB - VISIBILITY
$$




USA.gov is the U.S. government's official web portal to all federal, state and local government web resources and services.